Location: Gipe Farm
(40.9466°N, 95.5370°W)
Time: 02:06:38
(UTC-06:00)

Daily predictions for brighter satellites

Satellite Brightness Start Highest point End
(mag) Time Altitude Azimuth Time Altitude Azimuth Time Altitude Azimuth
Cosmos 2237 Rocket 4.2 04:22:48 21° SE 04:22:48 21° SE 04:24:40 10° SE
SL-16 R/B 3.9 04:22:48 28° NE 04:22:52 28° NE 04:27:40 10° ESE
Cosmos 2297 Rocket 3.6 04:33:23 33° NE 04:33:23 33° NE 04:36:40 10° NNE
Cosmos 2227 Rocket 3.7 04:46:53 27° NNE 04:46:53 27° NNE 04:49:23 10° NNE
Tsikada Rocket 4.0 05:04:33 31° N 05:07:53 84° E 05:14:12 10° S
Cosmos 2333 Rocket 4.1 05:21:27 16° SSW 05:21:27 16° SSW 05:22:36 10° S
SeaSat 1 4.3 05:20:52 10° N 05:22:19 18° N 05:22:19 18° N
SKYMED 2 3.9 05:22:46 10° SSE 05:27:02 64° ENE 05:28:08 46° NNE
Cosmos 968 Rocket 3.8 05:21:57 10° S 05:27:08 65° ESE 05:32:22 10° NNE
Cosmos 1864 Rocket 4.4 05:26:21 10° SSW 05:32:21 58° W 05:38:26 10° N
Cosmos 1725 Rocket 3.9 05:26:17 10° SSW 05:32:24 58° W 05:38:37 10° N
NOAA 6 3.9 05:29:28 10° NNE 05:34:41 84° WNW 05:39:52 10° SSW
USA 229 DEB 3.7 05:38:23 39° NW 05:41:11 65° WSW 05:48:18 10° SSE
USA 229 3.7 05:38:26 38° NW 05:41:16 66° WSW 05:48:25 10° SSE
Cosmos 1328 3.9 05:40:35 44° N 05:41:45 74° E 05:45:43 10° SSE
Cosmos 304 Rocket 3.6 05:43:29 46° NNW 05:44:53 80° WSW 05:49:39 10° SSE
ISS -3.0 05:48:48 64° E 05:48:48 64° E 05:51:40 10° ESE
Cosmos 2221 3.8 05:44:47 10° SSE 05:48:51 41° E 05:52:55 10° NNE
OAO 2 Rocket 4.0 05:48:32 34° SW 05:49:50 41° S 05:54:27 10° ESE
CSL-04 Rocket 4.2 05:48:47 10° NNE 05:54:02 58° ESE 05:59:12 10° S
NOSS 3-1 (A) 4.5 05:48:20 14° NNW 05:54:53 61° NE 06:03:08 10° SE
Genesis I 4.4 05:53:48 22° N 05:55:49 39° NE 05:59:31 10° ESE
Cosmos 540 Rocket 4.5 05:57:07 27° SW 05:57:07 27° SW 06:00:20 10° SSW
Cosmos 2058 3.4 05:52:36 10° N 05:56:42 61° E 06:00:47 10° SSE
Aureole 2 Rocket 3.9 06:00:01 29° SW 06:00:01 29° SW 06:02:39 10° SSW
Cosmos 1777 Rocket 4.3 05:55:39 10° S 06:00:49 68° ESE 06:06:01 10° NNE
Cosmos 2237 Rocket 3.8 06:04:42 17° SW 06:04:42 17° SW 06:06:43 10° SW
Cosmos 1743 Rocket 4.3 06:05:12 32° WSW 06:05:12 32° WSW 06:08:24 10° SSW
SL-8 R/B 4.3 06:03:57 29° NW 06:06:01 47° NNE 06:10:39 10° E
SL-16 R/B 2.5 06:04:45 29° NW 06:07:09 45° WSW 06:12:30 10° S
TELKOM 3 3.0 06:09:30 80° SSW 06:09:35 83° SSE 06:11:50 10° ENE
Cosmos 1703 4.2 06:07:09 10° N 06:10:58 49° E 06:14:46 10° SSE
PSLV R/B 3.9 06:11:31 28° SW 06:12:59 50° SSE 06:16:16 10° E
Cosmos 1842 Rocket 4.0 06:10:14 10° SW 06:14:14 36° WNW 06:18:16 10° N
COSMO-SKYMED 1 3.1 06:11:07 10° SSW 06:15:07 36° W 06:16:42 27° NW
Cosmos 2297 Rocket 3.2 06:15:15 24° WNW 06:15:32 24° NW 06:20:06 10° N
IDEFIX/ARIANE 42P 3.7 06:11:47 10° NNE 06:16:53 48° E 06:21:57 10° S
Helios 1B rocket 4.4 06:14:26 10° SE 06:17:58 28° ENE 06:21:30 10° N
ERBS 2.3 06:18:03 31° NW 06:19:33 84° NE 06:22:57 10° SE
Cosmos 2151 3.1 06:16:07 12° NNW 06:19:48 51° W 06:23:54 10° S
Cosmos 1356 Rocket 4.0 06:17:05 10° N 06:21:08 58° ENE 06:25:13 10° SSE
Meteor 1-4 Rocket 4.0 06:22:59 22° NW 06:22:59 22° NW 06:24:55 10° NNW
Cosmos 2233 Rocket 4.4 06:16:00 10° SW 06:21:45 38° WNW 06:27:36 10° N
Cosmos 1805 Rocket 3.7 06:19:31 10° N 06:23:58 74° E 06:28:20 10° SSE
Cosmos 1340 Rocket 2.7 06:20:12 10° NNW 06:24:06 64° W 06:28:00 10° S
USA 234 3.6 06:17:47 10° ESE 06:24:14 64° NE 06:30:21 12° NW
Meteor 1-11 4.3 06:20:05 10° NNW 06:25:49 60° W 06:31:30 10° S
Cosmos 1271 Rocket 2.8 06:22:41 10° SSW 06:26:24 47° WNW 06:30:05 10° N
Cosmos 1538 Rocket 4.2 06:21:59 12° NNW 06:26:45 50° WSW 06:31:54 10° S
Meteor 1-28 Rocket 3.8 06:24:59 10° SSW 06:28:28 35° W 06:30:52 17° NW
Cosmos 2227 Rocket 3.7 06:28:45 15° NW 06:28:45 15° NW 06:31:52 10° NNW
Meteor 1-16 Rocket 4.4 06:26:19 10° SSW 06:31:28 44° WNW 06:36:34 10° N
BREEZE-M DEB (TANK) 4.0 06:31:03 16° NNW 06:32:11 19° N 06:33:57 10° NE
SL-14 R/B 4.0 06:31:11 13° NNW 06:34:14 32° W 06:37:52 10° SSW
Cosmos 923 Rocket 4.0 06:29:04 10° NNW 06:34:19 86° ENE 06:39:34 10° SSE
NOSS 3-1 (C) 4.1 06:28:35 11° NW 06:36:04 69° WSW 06:44:23 10° SSE
Ariane Rocket 3.2 06:32:15 10° N 06:37:07 46° WNW 06:41:57 10° SW
SJ-12 3.9 06:36:25 10° NNE 06:40:31 89° WNW 06:44:34 10° SSW
Cosmos 292 Rocket 3.8 06:35:47 10° NNW 06:40:35 85° ENE 06:45:23 10° SSE
Cosmos 2034 Rocket 3.9 06:35:03 10° S 06:41:14 81° W 06:47:31 10° N
Cosmos 1626 2.1 06:38:29 10° N 06:42:14 87° W 06:45:58 10° S
Cosmos 1680 Rocket 3.7 06:37:53 10° NNW 06:43:13 79° ENE 06:48:32 10° SSE
IRS-1A Rocket 4.3 06:39:04 10° NNE 06:44:58 77° WNW 06:50:46 10° SSW
Sich 1 3.0 06:44:41 10° N 06:49:05 90° SE 06:53:24 10° S
Nadezhda 4 Rocket 4.2 06:43:07 10° N 06:49:29 83° E 06:55:46 10° S
Cosmos 1943 3.5 06:44:28 10° NNW 06:50:11 70° ENE 06:55:51 10° SSE
SMAP 3.1 06:45:59 10° NNE 06:50:41 88° ESE 06:55:19 10° SSW
Cosmos 1633 Rocket 3.1 06:47:00 10° N 06:51:23 83° E 06:55:43 10° S
Cosmos 389 Rocket 2.7 06:49:49 10° S 06:53:28 78° E 06:57:09 10° NNE
CZ-2C R/B 2.2 06:50:14 10° N 06:54:50 73° WNW 06:59:22 10° SSW
Cosmos 1328 Rocket 4.2 06:50:42 10° S 06:54:56 60° E 06:59:14 10° NNE
CZ-4 R/B 1.4 06:52:45 10° N 06:56:44 57° WNW 07:00:46 10° SSW
Tiangong 2 3.1 06:54:36 10° SSW 06:57:20 28° SSE 07:00:05 10° E
PAYLOAD A 4.3 06:58:47 10° N 07:03:31 41° WNW 07:08:04 10° SW
CORIOLIS 4.2 07:00:48 10° NNE 07:06:14 85° WNW 07:11:40 10° SSW
Cosmos 1092 Rocket 4.2 06:59:55 10° N 07:06:15 81° E 07:12:29 10° S
GPS 2-05 Rocket1 4.2 07:05:00 10° WSW 07:07:58 32° S 07:11:02 10° ESE
YAOGAN 1 2.6 07:05:13 10° N 07:09:31 65° WNW 07:13:48 10° SSW
Coronas F rocket 1.2 07:08:03 10° NNW 07:10:23 45° W 07:12:41 10° S
Cosmos 1603 4.3 07:05:57 10° NW 07:11:03 36° WSW 07:16:09 10° S
Cosmos 1151 Rocket 4.3 07:08:53 10° SSE 07:12:58 45° E 07:17:04 10° NNE
Cosmos 1908 3.3 07:09:19 10° SSW 07:13:04 54° W 07:16:51 10° N
COSMOS 2441 4.3 07:10:25 10° N 07:15:14 82° WNW 07:20:00 10° SSW
Cosmos 2263 Rocket 2.3 07:10:47 10° SSW 07:16:28 88° ESE 07:22:12 10° NNE
